Regional Weather Roundup
Issued by NWS Charleston, SC

Current Version | Previous Version | Text Only | Print | Product List | Glossary Off
Versions: 1 2 3 4 5 6 7 8 9 10 11 12 13 14 15 16 17 18 19 20 21 22 23 24 25 26 27 28 29 30 31 32 33 34 35 36 37 38 39 40 41 42 43 44 45 46 47 48 49 50
000 ASUS42 KCHS 250927 RWRCHS REGIONAL WEATHER ROUNDUP NATIONAL WEATHER SERVICE CHARLESTON SC 500 AM EDT THU MAY 25 2017 NOTE: "FAIR" INDICATES FEW OR NO CLOUDS BELOW 12,000 FEET WITH NO SIGNIFICANT WEATHER AND/OR OBSTRUCTIONS TO VISIBILITY. NOT ALL STATIONS ARE QUALITY CONTROLLED. USE DATA WITH CAUTION... ESPECIALLY DEWPOINT OBSERVATIONS. SCZ027-030-031-034>040-042>050-251000- ...SOUTHEAST SOUTH CAROLINA... CITY SKY/WX TMP DP RH WIND PRES REMARKS N CHARLESTON PTCLDY 67 63 87 SW9 29.60R WATERFRONT PRK N/A 71 66 84 SW8 29.57R JOHNS ISLAND NOT AVBL PINOPOLIS N/A 70 68 94 SW10 29.49R MONCKS CORNER NOT AVBL SUMMERVILLE NOT AVBL BEAUFORT MCAS PTCLDY 67 63 87 SW16 29.63R BEAUFORT ARPT NOT AVBL HILTON HEAD IS NOT AVBL WALTERBORO NOT AVBL ALLENDALE NOT AVBL ...SOUTHERN MIDLANDS AND PEE DEE... CITY SKY/WX TMP DP RH WIND PRES REMARKS GEORGETOWN NOT AVBL KINGSTREE NOT AVBL ORANGEBURG CLOUDY 64 63 96 SW8 29.59R BARNWELL NOT AVBL AIKEN NOT AVBL MANNING NOT AVBL COLUMBIA CLEAR 62 59 90 SW8 29.56R SUMTER MOCLDY 63 61 94 SW10 29.55R FLORENCE CLEAR 65 64 97 SW9 29.55R MYRTLE BEACH PTCLDY 69 66 90 SW6 29.58R N MYRTLE BEACH CLOUDY 71 66 84 SW9 29.55S $$ GAZ063-065-086>088-099>101-113>116-118-119-134>141-150-251000- ...SOUTHEAST GEORGIA... CITY SKY/WX TMP DP RH WIND PRES REMARKS SAVANNAH ARPT CLEAR 65 59 81 W9 29.66R HUNTER AAF PTCLDY 65 65 100 SW8 29.64R FORT STEWART CLEAR 64 59 83 SW5 29.65R STATESBORO CLEAR 62 62 100 CALM 29.66R SYLVANIA SUNNY 62 62 99 CALM 29.66R CLAXTON FAIR 62 62 100 SW8 29.67R ...CSRA...CENTRAL AND FAR SOUTHEAST GEORGIA... CITY SKY/WX TMP DP RH WIND PRES REMARKS THOMSON CLOUDY 58 55 89 NW7 29.66R AUGUSTA-BUSH PTCLDY 62 58 86 SW8 29.60R AUGUSTA-DANIEL CLEAR 61 56 83 W6 29.60R SWAINSBORO FAIR 59 59 100 SW5 29.67R VIDALIA NOT AVBL EASTMAN PTSUNNY 60 52 72 CALM 29.69S HAZLEHURST FAIR 61 61 100 SW3 29.67R ALMA PTCLDY 61 58 90 SW5 29.68R WAYCROSS MOCLDY 65 65 100 SW3 29.68R JESUP FAIR 63 59 88 CALM 29.68S BAXLEY FAIR 63 63 100 CALM 29.68R BRUNSWICK PTCLDY 66 63 88 SW7 29.70R SAINT SIMONS CLEAR 68 63 84 W10 29.68R $$ SCZ027-028-034-036>038-045-046-048>050-GAZ119-141-251000- ...LAKE AND SUPPLEMENTAL COASTAL OBSERVATIONS... STATION/POSITION TIME TEMP WIND PRES WAVE SWELL AIR SEA DIR/SP/G HT/PER HT/PER/DIR (UTC) (F) (DEG/KT/KT) (MB) (FT/S) (FT/S/D) WINYAH BAY 0830 70 240/ 8 1001.0S LAKE MURRAY 0850 64 240/ 13/ 16 1000.0R ACE BASIN NERRS 0845 68 230/ 4 1003.0R FORT PULASKI 0900 68 270/ 12/ 17 1004.3 SAPELO ISLAND 0900 68 250/ 11 1005.0 $$ ANZ835-935-AMZ111-154-330-350-352-354-370-450-454-472-251000- ...C-MAN AND BUOY OBSERVATIONS... STATION/POSITION TIME TEMP WIND PRES WAVE SWELL AIR SEA DIR/SP/G HT/PER HT/PER/DIR (UTC) (F) (DEG/KT/KT) (MB) (FT/S) (FT/S/D) BUOY 41004 0900 75 76 230/ 25/ 31 1002.0 BUOY 41008 0850 72 77 250/ 23/ 27 1003.8R 6/ 5 FOLLY BEACH CMAN 0900 70 240/ 13/ 18 1003.0R CAPERS NEARSHORE 0908 78 77 250/ 19/ 25 1001.6R FRIPP NEARSHORE 0908 71 77 260/ 19/ 25 1002.4R STATION/POSITION TIME TEMP WIND PRES WAVE SWELL AIR SEA DIR/SP/G HT/PER HT/PER/DIR (UTC) (F) (DEG/KT/KT) (MB) (FT/S) (FT/S/D) 5E ST. MARYS GA 0900 78 N/A 3/ 6 FRYING PAN BUOY 0910 77 76 230/ 23/ 29 1001.1 BUOY 41025 0850 74 76 200/ 17/ 19 1001.2F 6/ 6 2/110/10 CAPE LOOKOUT NC 0900 75 220/ 16/ 19 1000.6R BUOY 41002 0850 76 77 180/ 27/ 31 1006.6S 11/ 8 BUOY 41010 0910 80 78 220/ 17/ 23 1008.5 ST AUGUSTINE FL 0900 70 76 250/ 5/ 7 1007.8R $$

USA.gov is the U.S. government's official web portal to all federal, state and local government web resources and services.